Hill City, KS

3:58 PM CST on February 25, 2018 (GMT -0600)
Hill City Municipal

Weather History for KHLC - December, 2014

Change the Weather History Date:

Monday, December 29, 2014

  Actual Average Record
Temperature  
Mean Temperature 16 °F 29 °F  
Max Temperature 24 °F 41 °F 67 °F (1999)
Min Temperature 7 °F 16 °F -11 °F (1983)
Degree Days  
Heating Degree Days 49    
Moisture  
Dew Point 12 °F    
Average Humidity 84    
Maximum Humidity 92    
Minimum Humidity 76    
Precipitation  
Precipitation T in 0.02 in 2.15 in (2006)
Month to date precipitation 0.29 0.66  
Year to date precipitation 21.74 22.89  
Sea Level Pressure  
Sea Level Pressure 30.42 in    
Wind  
Wind Speed 11 mph (NNE)    
Max Wind Speed 23 mph    
Max Gust Speed 31 mph    
Visibility 4 miles    
Events Snow    
T = Trace of Precipitation, MM = Missing Value Source: NWS Daily Summary

Daily Weather History Graph

Daily Weather History Graph

Search for Another Location

Airport or City:

Trip Planner

Search our weather history database for the weather conditions in past years. The results will help you decide how hot, cold, wet, or windy it might be!

Date:

Astronomy

Dec. 29, 2014 Rise Set
Actual Time 7:58 AM CST 5:24 PM CST
Civil Twilight 7:28 AM CST 5:54 PM CST
Nautical Twilight 6:54 AM CST 6:28 PM CST
Astronomical Twilight 6:22 AM CST 7:00 PM CST
Moon 1:00 PM CST (12/29) 1:19 AM CST (12/29)
Length of Visible Light 10h 25m
Length of Day
9h 25m
First Quarter, 61% of the Moon is Illuminated
Dec 29
First Quarter
Jan 4
Full
Jan 13
Last Quarter
Jan 20
New
Jan 26
First Quarter

Hourly Weather History & Observations

Time (CST) Temp. Windchill Dew Point Humidity Pressure Visibility Wind Dir Wind Speed Gust Speed Precip Events Conditions
12:53 AM 19.9 °F - 16.0 °F 85% 30.16 in 10.0 mi Calm Calm - N/A   Clear
1:53 AM 19.9 °F - 18.0 °F 92% 30.15 in 10.0 mi Calm Calm - N/A   Clear
2:53 AM 19.0 °F 13.9 °F 15.1 °F 85% 30.16 in 10.0 mi East 3.5 mph - N/A   Clear
3:53 AM 14.0 °F 8.2 °F 10.9 °F 88% 30.17 in 10.0 mi SE 3.5 mph - N/A   Clear
4:53 AM 18.0 °F 6.1 °F 14.0 °F 84% 30.21 in 10.0 mi North 10.4 mph - N/A   Clear
5:53 AM 18.0 °F 6.9 °F 15.1 °F 88% 30.23 in 10.0 mi North 9.2 mph - N/A   Clear
6:53 AM 17.1 °F 10.0 °F 14.0 °F 88% 30.26 in 8.0 mi NE 4.6 mph - N/A   Clear
7:53 AM 15.1 °F 7.7 °F 12.0 °F 88% 30.29 in 7.0 mi NE 4.6 mph - N/A   Clear
8:19 AM 17.1 °F 7.6 °F 14.0 °F 88% 30.21 in 5.0 mi NNE 6.9 mph - N/A   Scattered Clouds
8:30 AM 18.0 °F 8.7 °F 14.0 °F 84% 30.22 in 5.0 mi NNE 6.9 mph - N/A   Mostly Cloudy
8:53 AM 19.0 °F 7.5 °F 16.0 °F 88% 30.32 in 5.0 mi NE 10.4 mph - N/A   Overcast
9:53 AM 21.9 °F 10.4 °F 19.0 °F 89% 30.36 in 3.0 mi NE 11.5 mph - N/A   Overcast
10:53 AM 21.9 °F 10.4 °F 19.0 °F 89% 30.40 in 3.0 mi NE 11.5 mph - N/A   Overcast
11:08 AM 21.9 °F 10.4 °F 19.0 °F 89% 30.31 in 3.0 mi NE 11.5 mph - N/A   Overcast
11:33 AM 23.0 °F 12.4 °F 19.9 °F 88% 30.30 in 3.0 mi NE 10.4 mph - N/A   Overcast
11:53 AM 23.0 °F 11.7 °F 19.9 °F 88% 30.39 in 3.0 mi NNE 11.5 mph - N/A   Overcast
12:53 PM 23.0 °F 9.6 °F 19.9 °F 88% 30.38 in 3.0 mi NE 16.1 mph - N/A   Overcast
1:14 PM 23.0 °F 9.6 °F 19.9 °F 88% 30.28 in 2.5 mi NNE 16.1 mph - N/A   Overcast
1:36 PM 24.1 °F 13.1 °F 21.0 °F 88% 30.28 in 3.0 mi NE 11.5 mph - N/A   Overcast
1:53 PM 24.1 °F 11.0 °F 19.9 °F 84% 30.37 in 3.0 mi NE 16.1 mph 23.0 mph N/A   Overcast
2:53 PM 23.0 °F 8.3 °F 19.0 °F 85% 30.38 in 4.0 mi NNE 19.6 mph 25.3 mph N/A   Overcast
3:32 PM 21.9 °F 6.5 °F 18.0 °F 85% 30.30 in 4.0 mi NNE 20.7 mph - N/A   Overcast
3:53 PM 21.9 °F 6.9 °F 18.0 °F 85% 30.43 in 4.0 mi NE 19.6 mph 25.3 mph N/A   Overcast
4:53 PM 19.9 °F 5.2 °F 15.1 °F 81% 30.47 in 6.0 mi NNE 17.3 mph 26.5 mph N/A   Haze
5:42 PM 19.0 °F 4.5 °F 14.0 °F 81% 30.39 in 2.0 mi NNE 16.1 mph - 0.00 in Snow Light Snow
5:48 PM 17.6 °F 1.3 °F 14.0 °F 86% 30.40 in 1.2 mi NNE 19.6 mph - 0.00 in Snow Light Snow
5:49 PM 17.6 °F 1.3 °F 14.0 °F 86% 30.39 in 1.2 mi NNE 19.6 mph - 0.00 in Snow Light Snow
5:53 PM 18.0 °F 1.3 °F 12.9 °F 81% 30.51 in 1.2 mi NNE 20.7 mph - 0.00 in Snow Light Snow
6:05 PM 17.1 °F 2.0 °F 12.9 °F 84% 30.41 in 2.0 mi NNE 16.1 mph - 0.00 in Snow Light Snow
6:37 PM 17.1 °F 0.6 °F 12.0 °F 81% 30.44 in 1.5 mi NNE 19.6 mph 25.3 mph 0.00 in Snow Light Snow
6:53 PM 16.0 °F -0.9 °F 12.0 °F 84% 30.56 in 1.8 mi NE 19.6 mph - 0.00 in Snow Light Snow
7:34 PM 15.1 °F -0.6 °F 10.0 °F 80% 30.47 in 1.2 mi NNE 16.1 mph 26.5 mph 0.00 in Snow Light Snow
7:51 PM 14.0 °F -3.9 °F 8.6 °F 79% 30.47 in 1.8 mi NNE 20.7 mph - 0.00 in Snow Light Snow
7:53 PM 14.0 °F -3.0 °F 9.0 °F 80% 30.60 in 1.8 mi NNE 18.4 mph - 0.00 in Snow Light Snow
8:06 PM 12.9 °F -5.3 °F 8.1 °F 81% 30.49 in 1.5 mi NNE 20.7 mph - 0.00 in Snow Light Snow
8:13 PM 12.9 °F -5.3 °F 8.1 °F 81% 30.49 in 1.2 mi NNE 20.7 mph - 0.00 in Snow Light Snow
8:49 PM 12.2 °F -5.3 °F 6.8 °F 79% 30.53 in 0.8 mi NE 18.4 mph 29.9 mph 0.00 in Snow Light Snow
8:53 PM 12.0 °F -7.3 °F 7.0 °F 80% 30.65 in 1.0 mi NE 23.0 mph 29.9 mph 0.00 in Snow Light Snow
9:06 PM 12.0 °F -5.1 °F 7.0 °F 80% 30.53 in 0.8 mi NNE 17.3 mph - 0.00 in Snow Light Snow
9:14 PM 10.9 °F -7.0 °F 6.1 °F 81% 30.54 in 1.0 mi NNE 18.4 mph 26.5 mph 0.00 in Snow Light Snow
9:53 PM 10.0 °F -5.9 °F 6.1 °F 84% 30.69 in 0.8 mi NNE 13.8 mph - 0.00 in Snow Light Snow
10:02 PM 10.4 °F -8.2 °F 5.0 °F 79% 30.57 in 1.0 mi NNE 19.6 mph 26.5 mph N/A Snow Light Snow
10:12 PM 9.0 °F -9.0 °F 3.9 °F 80% 30.57 in 1.5 mi NNE 17.3 mph 28.8 mph 0.00 in Snow Light Snow
10:53 PM 8.1 °F -12.2 °F 3.0 °F 80% 30.71 in 1.5 mi NNE 21.9 mph 31.1 mph 0.00 in Snow Light Snow
11:08 PM 8.1 °F -11.2 °F 3.0 °F 80% 30.60 in 2.5 mi NNE 19.6 mph - 0.00 in Snow Light Snow
11:15 PM 8.1 °F -9.6 °F 1.9 °F 76% 30.60 in 4.0 mi NNE 16.1 mph - 0.00 in Snow Light Snow
11:22 PM 8.1 °F -9.6 °F 3.0 °F 80% 30.60 in 2.5 mi North 16.1 mph - 0.00 in Snow Light Snow
11:53 PM 7.0 °F -12.6 °F 1.9 °F 80% 30.73 in 2.5 mi NNE 19.6 mph - 0.00 in Snow Light Snow